Location: Milton
(43.5183°N, 79.8775°W)
Time: 14:07:14
(UTC+00:00)

UNISAT 6 - Pass Details

Date: 25 March 2023
Orbit: 599 x 680 km, 97.7° (Epoch: 02 June)

Event Time Altitude Azimuth Distance (km) Brightness Sun altitude
Rises 08:56:09 0° 126° (SE) 2,886 ? -24.7°
Reaches altitude 10° 08:58:51 10° 108° (ESE) 2,000 ? -24.3°
Maximum altitude 09:01:51 19° 64° (ENE) 1,530 ? -23.8°
Drops below altitude 10° 09:04:55 10° 20° (NNE) 2,045 ? -23.3°
Sets 09:07:42 0° 3° (N) 2,977 ? -22.9°
